Weather History for Howell, MI

Change the Weather History Date:

Monday, February 11, 2013

  Actual Average Record
Temperature  
Mean Temperature 38 °F -  
Max Temperature 44 °F 33 °F 62 °F (1999)
Min Temperature 32 °F 19 °F -4 °F (2008)
Degree Days  
Heating Degree Days 27    
Moisture  
Dew Point 29 °F    
Average Humidity 74    
Maximum Humidity 90    
Minimum Humidity 60    
Precipitation  
Precipitation 0.00 in - - ()
Sea Level Pressure  
Sea Level Pressure 29.64 in    
Wind  
Wind Speed 16 mph (SW)    
Max Wind Speed 29 mph    
Max Gust Speed 40 mph    
Visibility 9 miles    
Events Rain    
Averages and records for this station are not official NWS values.
T = Trace of Precipitation, MM = Missing Value Source: NWS Daily Summary

Daily Weather History Graph

Daily Weather History Graph

Search for Another Location

Airport:

Trip Planner

Search our weather history database for the weather conditions in past years. The results will help you decide how hot, cold, wet, or windy it might be!

Date:

Astronomy

Feb. 11, 2013 Rise Set
Actual Time 7:37 AM EST 6:03 PM EST
Civil Twilight 7:08 AM EST 6:32 PM EST
Nautical Twilight 6:35 AM EST 7:05 PM EST
Astronomical Twilight 6:02 AM EST 7:38 PM EST
Moon 7:58 AM EST (2/11) 8:02 PM EST (2/11)
Length of Visible Light 11h 23m
Length of Day
10h 25m
Waxing Crescent, 3% of the Moon is Illuminated
Feb 11
Waxing Crescent
Feb 17
First Quarter
Feb 25
Full
Mar 4
Last Quarter
Mar 11
New

Hourly Weather History & Observations

Time (EST) Temp. Windchill Dew Point Humidity Pressure Visibility Wind Dir Wind Speed Gust Speed Precip Events Conditions
12:14 AM 39.4 °F 32.3 °F 35.2 °F 85% 29.64 in 10.0 mi South 11.5 mph - N/A   Overcast
12:35 AM 40.1 °F 33.2 °F 36.3 °F 86% 29.63 in 7.0 mi South 11.5 mph - N/A   Overcast
12:54 AM 41.0 °F 33.9 °F 37.4 °F 87% 29.63 in 7.0 mi South 12.7 mph - N/A   Overcast
1:14 AM 41.5 °F 33.8 °F 38.1 °F 88% 29.62 in 5.0 mi South 15.0 mph 21.9 mph N/A   Overcast
1:35 AM 41.7 °F 34.4 °F 38.5 °F 88% 29.61 in 4.0 mi South 13.8 mph - N/A   Overcast
1:54 AM 41.5 °F 35.4 °F 38.7 °F 89% 29.60 in 4.0 mi South 10.4 mph - N/A   Overcast
2:15 AM 41.9 °F 35.0 °F 39.2 °F 90% 29.59 in 4.0 mi South 12.7 mph 17.3 mph N/A   Overcast
2:35 AM 42.8 °F 35.8 °F 40.1 °F 90% 29.58 in 4.0 mi South 13.8 mph - N/A   Overcast
2:54 AM 43.3 °F 37.2 °F 40.6 °F 90% 29.58 in 5.0 mi South 11.5 mph 17.3 mph N/A   Overcast
3:15 AM 44.1 °F 37.4 °F 41.4 °F 90% 29.57 in 7.0 mi South 13.8 mph 19.6 mph N/A   Overcast
3:35 AM 44.2 °F 38.4 °F 41.2 °F 89% 29.56 in 7.0 mi South 11.5 mph 17.3 mph N/A   Overcast
3:54 AM 44.8 °F 38.7 °F 41.7 °F 89% 29.54 in 10.0 mi South 12.7 mph 19.6 mph N/A   Overcast
4:15 AM 44.6 °F 37.4 °F 41.2 °F 88% 29.53 in 7.0 mi South 16.1 mph 21.9 mph N/A   Overcast
4:34 AM 44.8 °F 37.7 °F 41.4 °F 88% 29.53 in 10.0 mi South 16.1 mph 21.9 mph N/A   Overcast
4:54 AM 44.6 °F 38.4 °F 41.0 °F 87% 29.53 in 7.0 mi SW 12.7 mph 17.3 mph N/A Rain Heavy Rain
5:15 AM 43.2 °F 36.6 °F 38.5 °F 84% 29.53 in 7.0 mi SSW 12.7 mph 23.0 mph N/A Rain Light Rain
5:34 AM 43.3 °F 36.8 °F 38.3 °F 82% 29.53 in 10.0 mi SW 12.7 mph 20.7 mph N/A   Overcast
5:54 AM 43.0 °F 37.2 °F 35.6 °F 75% 29.53 in 10.0 mi SW 10.4 mph 23.0 mph N/A   Overcast
6:15 AM 42.8 °F 38.0 °F 34.2 °F 72% 29.53 in 10.0 mi SW 8.1 mph 18.4 mph N/A   Mostly Cloudy
6:54 AM 41.5 °F 34.2 °F 34.2 °F 75% 29.52 in 10.0 mi SW 13.8 mph - N/A   Overcast
7:14 AM 41.4 °F 34.7 °F 32.4 °F 70% 29.53 in 10.0 mi SW 11.5 mph 18.4 mph N/A   Overcast
7:34 AM 41.0 °F 31.4 °F 30.6 °F 66% 29.53 in 10.0 mi SW 21.9 mph 33.4 mph N/A   Overcast
7:55 AM 40.5 °F 30.4 °F 28.2 °F 62% 29.54 in 10.0 mi SW 23.0 mph 35.7 mph N/A   Overcast
8:14 AM 40.1 °F 30.2 °F 27.9 °F 62% 29.55 in 10.0 mi SW 21.9 mph 28.8 mph N/A   Overcast
8:34 AM 39.4 °F 30.4 °F 28.2 °F 64% 29.56 in 10.0 mi SW 17.3 mph 25.3 mph N/A   Overcast
8:55 AM 38.7 °F 29.1 °F 27.9 °F 65% 29.56 in 10.0 mi SW 18.4 mph 31.1 mph N/A   Overcast
9:14 AM 38.3 °F 28.1 °F 27.5 °F 65% 29.56 in 10.0 mi SW 20.7 mph 26.5 mph N/A   Overcast
9:35 AM 37.4 °F 28.9 °F 27.5 °F 67% 29.57 in 10.0 mi SW 13.8 mph 26.5 mph N/A   Overcast
9:55 AM 36.9 °F 25.9 °F 25.3 °F 63% 29.57 in 10.0 mi SW 21.9 mph 39.1 mph N/A   Overcast
10:14 AM 36.5 °F 26.0 °F 23.9 °F 60% 29.58 in 10.0 mi SW 19.6 mph 33.4 mph N/A   Overcast
10:35 AM 35.8 °F 25.7 °F 24.4 °F 63% 29.59 in 10.0 mi SW 17.3 mph 26.5 mph N/A   Overcast
10:55 AM 35.6 °F 26.2 °F 24.8 °F 65% 29.59 in 10.0 mi SW 15.0 mph 25.3 mph N/A   Overcast
11:14 AM 35.1 °F 23.3 °F 25.2 °F 67% 29.59 in 10.0 mi SW 23.0 mph 32.2 mph N/A   Overcast
11:35 AM 34.9 °F 24.9 °F 25.3 °F 68% 29.60 in 10.0 mi WSW 16.1 mph 34.5 mph N/A   Overcast
11:54 AM 34.7 °F 24.7 °F 25.9 °F 70% 29.60 in 10.0 mi SW 16.1 mph 27.6 mph N/A   Overcast
12:14 PM 34.9 °F 22.7 °F 25.5 °F 69% 29.59 in 10.0 mi WSW 24.2 mph 29.9 mph N/A   Overcast
12:35 PM 35.1 °F 23.3 °F 24.6 °F 66% 29.59 in 10.0 mi WSW 23.0 mph 32.2 mph N/A   Overcast
12:54 PM 35.1 °F 23.5 °F 24.4 °F 65% 29.60 in 10.0 mi SW 21.9 mph 29.9 mph N/A   Overcast
1:14 PM 35.6 °F 23.7 °F 24.4 °F 64% 29.59 in 10.0 mi WSW 24.2 mph 33.4 mph N/A   Overcast
1:35 PM 35.6 °F 24.8 °F 24.4 °F 64% 29.60 in 10.0 mi WSW 19.6 mph 38.0 mph N/A   Overcast
1:54 PM 35.6 °F 24.2 °F 24.4 °F 64% 29.60 in 10.0 mi WSW 21.9 mph 35.7 mph N/A   Overcast
2:14 PM 34.9 °F 21.8 °F 23.9 °F 64% 29.61 in 10.0 mi WSW 28.8 mph 39.1 mph N/A   Overcast
2:35 PM 34.9 °F 23.6 °F 24.3 °F 65% 29.61 in 10.0 mi WSW 20.7 mph 38.0 mph N/A   Overcast
2:54 PM 34.7 °F 23.1 °F 24.1 °F 65% 29.62 in 10.0 mi WSW 21.9 mph 38.0 mph N/A   Overcast
3:15 PM 34.3 °F 22.9 °F 24.6 °F 68% 29.64 in 10.0 mi WSW 20.7 mph 40.3 mph N/A   Overcast
3:35 PM 34.0 °F 21.0 °F 25.2 °F 70% 29.65 in 10.0 mi WSW 26.5 mph 35.7 mph N/A   Overcast
3:54 PM 33.8 °F 22.2 °F 25.3 °F 71% 29.66 in 10.0 mi WSW 20.7 mph 32.2 mph N/A   Overcast
4:15 PM 33.8 °F 21.6 °F 25.0 °F 70% 29.66 in 10.0 mi WSW 23.0 mph 34.5 mph N/A   Overcast
4:34 PM 33.8 °F 21.0 °F 25.3 °F 71% 29.67 in 10.0 mi WSW 25.3 mph 34.5 mph N/A   Overcast
4:54 PM 33.8 °F 22.8 °F 25.7 °F 72% 29.68 in 10.0 mi WSW 18.4 mph 27.6 mph N/A   Overcast
5:54 PM 33.8 °F 21.0 °F 26.1 °F 73% 29.71 in 10.0 mi West 25.3 mph 35.7 mph N/A   Overcast
6:15 PM 33.4 °F 20.6 °F 25.7 °F 73% 29.73 in 10.0 mi WSW 25.3 mph 38.0 mph N/A   Overcast
6:34 PM 33.3 °F 20.6 °F 25.7 °F 74% 29.74 in 10.0 mi WSW 24.2 mph 34.5 mph N/A   Overcast
6:54 PM 33.1 °F 20.6 °F 25.7 °F 74% 29.75 in 10.0 mi West 23.0 mph 33.4 mph N/A   Overcast
7:15 PM 33.1 °F 22.2 °F 25.3 °F 73% 29.76 in 10.0 mi WSW 17.3 mph 29.9 mph N/A   Overcast
7:34 PM 32.9 °F 19.3 °F 24.4 °F 71% 29.77 in 10.0 mi WSW 27.6 mph 33.4 mph N/A   Overcast
7:54 PM 32.5 °F 21.2 °F 24.4 °F 72% 29.78 in 10.0 mi West 18.4 mph 28.8 mph N/A   Overcast
8:14 PM 32.4 °F 21.3 °F 24.8 °F 74% 29.78 in 10.0 mi WSW 17.3 mph 27.6 mph N/A   Overcast
8:34 PM 32.0 °F 20.8 °F 24.8 °F 75% 29.79 in 10.0 mi West 17.3 mph 26.5 mph N/A   Overcast
8:55 PM 32.0 °F 20.5 °F 24.8 °F 75% 29.79 in 10.0 mi WSW 18.4 mph 27.6 mph N/A   Overcast
9:14 PM 32.0 °F 20.8 °F 24.6 °F 74% 29.80 in 10.0 mi West 17.3 mph 28.8 mph N/A   Overcast
9:34 PM 32.0 °F 20.1 °F 24.8 °F 75% 29.80 in 10.0 mi West 19.6 mph 27.6 mph N/A   Overcast
9:55 PM 32.0 °F 20.8 °F 25.2 °F 76% 29.81 in 10.0 mi West 17.3 mph 23.0 mph N/A   Overcast
10:14 PM 32.0 °F 21.6 °F 25.2 °F 76% 29.81 in 10.0 mi West 15.0 mph 23.0 mph N/A   Overcast
10:35 PM 32.0 °F 21.2 °F 24.8 °F 75% 29.82 in 10.0 mi West 16.1 mph 25.3 mph N/A   Overcast
11:14 PM 32.0 °F 22.1 °F 24.6 °F 74% 29.83 in 10.0 mi West 13.8 mph 23.0 mph N/A   Overcast
11:35 PM 32.0 °F 20.1 °F 24.4 °F 74% 29.83 in 10.0 mi West 19.6 mph 31.1 mph N/A   Overcast
11:54 PM 32.0 °F 21.2 °F 23.9 °F 72% 29.83 in 10.0 mi West 16.1 mph 26.5 mph N/A   Overcast